This demonstration page uses our WeatherBlox Daily Observations layout. Learn more.

Left ArrowRight Arrow

34.16533, -84.80231

Hourly Observations for October 3, 2020

Temp ( °F °C ) Dew Point ( °F °C ) Humidity (%) Winds ( mph kmh ) Pressure ( in mb ) Visibility ( mi km ) Precip ( " mm )
12:53 am 00:53 Clear 47 8.3 44 6.7 90 90 Calm 30.14 1021 10 16 0.00 0.00
1:53 am 01:53 Clear 46 7.8 43 6.1 89 89 Calm 30.13 1020 10 16 0.00 0.00
2:53 am 02:53 Clear 46 7.8 43 6.1 89 89 Calm 30.14 1021 10 16 0.00 0.00
3:53 am 03:53 Clear 45 7.2 42 5.6 90 90 Calm 30.14 1021 10 16 0.00 0.00
4:53 am 04:53 Clear 44 6.7 42 5.6 93 93 Calm 30.14 1021 10 16 0.00 0.00
5:53 am 05:53 Clear 43 6.1 41 5 93 93 Calm 30.15 1021 10 16 0.00 0.00
6:53 am 06:53 Clear 42 5.6 40 4.4 92 92 Calm 30.17 1022 10 16 0.00 0.00
7:53 am 07:53 Partly Cloudy 43 6.1 40 4.4 89 89 Calm 30.19 1022 10 16 0.00 0.00
8:02 am 08:02 Mostly Cloudy with Mist and Fog 43 6.1 40 4.4 89 89 Calm 30.23 1024 4 6 0.00 0.00
8:13 am 08:13 Partly Cloudy 44 6.7 41 5 89 89 Calm 30.24 1024 10 16 0.00 0.00
8:20 am 08:20 Mostly Cloudy 45 7.2 42 5.6 90 90 Calm 30.24 1024 10 16 0.00 0.00
8:27 am 08:27 Mostly Sunny 45 7.2 43 6.1 93 93 Calm 30.24 1024 10 16 0.00 0.00
8:53 am 08:53 Sunny 47 8.3 44 6.7 90 90 Calm 30.21 1023 10 16 0.00 0.00
9:53 am 09:53 Sunny 53 11.7 46 7.8 77 77 Calm 30.22 1023 10 16 0.00 0.00
10:53 am 10:53 Sunny 60 15.6 48 8.9 65 65 VRB 5 7 30.20 1023 10 16 0.00 0.00
11:53 am 11:53 Sunny 65 18.3 49 9.4 56 56 VRB 6 9 30.19 1023 10 16 0.00 0.00
12:53 pm 12:53 Sunny 69 20.6 48 8.9 47 47 SE 7 11 30.18 1022 10 16 0.00 0.00
1:53 pm 13:53 Sunny 70 21.1 45 7.2 41 41 SW 5 7 30.16 1022 10 16 0.00 0.00
2:53 pm 14:53 Sunny 71 21.7 45 7.2 39 39 VRB 3 6 30.15 1021 10 16 0.00 0.00
3:53 pm 15:53 Sunny 73 22.8 45 7.2 37 37 VRB 3 6 30.13 1020 10 16 0.00 0.00
4:53 pm 16:53 Sunny 72 22.2 45 7.2 38 38 VRB 3 6 30.12 1020 10 16 0.00 0.00
5:53 pm 17:53 Sunny 73 22.8 45 7.2 37 37 NE 6 9 30.11 1020 10 16 0.00 0.00
6:53 pm 18:53 Sunny 63 17.2 53 11.7 70 70 Calm 30.13 1020 10 16 0.00 0.00
7:53 pm 19:53 Clear 57 13.9 52 11.1 83 83 Calm 30.14 1021 10 16 0.00 0.00
8:53 pm 20:53 Clear 55 12.8 52 11.1 90 90 Calm 30.16 1021 10 16 0.00 0.00
9:53 pm 21:53 Clear 54 12.2 50 10 87 87 Calm 30.17 1022 10 16 0.00 0.00
10:53 pm 22:53 Clear 53 11.7 49 9.4 86 86 Calm 30.18 1022 10 16 0.00 0.00
11:53 pm 23:53 Clear 52 11.1 48 8.9 86 86 Calm 30.16 1022 10 16 0.00 0.00

Powered by AerisWeather